Terug naar catalogus

NOAA 12 DEB

ActiefSSO
NORAD 37831·DEBRIS·🇺🇸 United States

Gelanceerd May 14, 1991 vanaf Vandenberg Space Force Base

Loading…

Volgende Passages (komende 24 uur)

TLE

VersSource: Space-Track

Epoch: Sep 14, 2026, 03:44 UTC

1 37831U 91032D   26257.15581464  .00015505  00000-0  15878-2 0  9990
2 37831  98.1214 321.2169 0001574  82.5848 305.7411 14.90587378788854

Volg NOAA 12 DEB in realtime met AllMySat

Download on the App Store